ONEWEB-0617 (55158 NORAD) Tracking and Keplerian Element Data

This shows tracking and keplerian element data for the satellite.

Feedback or suggestion? Click here.




ElementValue
Catalog55158
NameONEWEB-0617
Epoch Orbit1104
Epoch Day85.16122026
Epoch Year2023
RAAN257.0697
Inclination87.2784
Eccentricity0.0007525
Argument of Perigee325.4984
Mean Anonmoly34.5701
Mean Motion13.93007171
Decay Rate2.58E-06
L11 55158U 23004U 23085.16122026 .00000258 00000+0 18566-3 0 9994
L22 55158 87.2784 257.0697 0007525 325.4984 34.5701 13.93007171 11040



Live tracking and technical data element details for ONEWEB-0617 (NORAD 55158). ONEWEB-0617 can be tracked NOW for your location showing map with azimuth and elevation plus other details from your city location.







IsCatalogInMostPopularTable: catalog: 55158, numindb: 10
Update: records affected: 1



GetName: 55158 ONEWEB-0617

Hit Count: updated at: Mon, 27 Mar 2023 07:29:08 GMT